User: anonymous   Login
Location: Coffee Creek Observatory
(38.8077°N, 94.7179°W)
Time: 10:10:04
(UTC-06:00)
Language:

Lacrosse 4 Rocket - Orbit

View from above orbital plane
View from above orbital plane
View from above satellite
View from above satellite

Ground track
Ground track

The orbit data is extracted from the following two-line orbital elements,

1 26474U 00047B   16043.48787140  .00001186  00000-0  11607-3 0  9991
2 26474  67.9945 121.5525 0054489 146.7994 213.6587 14.95026536842025
Epoch (UTC): 12 February 2016 11:42:32
Eccentricity: 0.0054489
inclination: 67.9945°
perigee height: 544 km
apogee height: 620 km
right ascension of ascending node: 121.5525°
argument of perigee: 146.7994°
revolutions per day: 14.95026536
mean anomaly at epoch: 213.6587°
orbit number at epoch: 84202

The dashed part of the orbit path shows where the satellite is in the earth's shadow,  

DLR